Location: Marcé
(47.5801°N, 0.3280°W)
Time: 23:43:50
(UTC+01:00)

Vanguard 2 - Pass Details

Date: 06 December 2021
Orbit: 553 x 2936 km, 32.9° (Epoch: 20 January)

Event Time Altitude Azimuth Distance (km) Brightness Sun altitude
Rises 17:41:54 0° 251° (WSW) 3,466 13.2 -5.4°
Reaches altitude 10° 17:45:01 10° 231° (SW) 2,833 12.1 -5.9°
Maximum altitude 17:49:26 18° 191° (SSW) 2,742 10.9 -6.5°
Drops below altitude 10° 17:55:15 10° 154° (SSE) 3,891 11.1 -7.4°
Sets 18:00:42 0° 139° (SE) 5,404 11.7 -8.3°
